Temp
8 9 10 10 10 11 11 11 11 11 11 11 11 11 11 11 11 11 11 12 12 11 11 11 11 12 12 11 11 11 11 11 11 12 12 11 11 11 11 11 11 11 11 11 12 12 13 14 14 13 15 16 15 16 16 16 17 18 21 21 21 22 21 21 22 21 19 16 16 17 17 16 15 15 15 15 14 13 12 11 11 11 10 10 9 9 8 9
8 9 10 10 11 11 11 11 11 12 12 12 12 12 11 12 12 11 11 12 12 11 11 11 11 11 12 11 11 11 11 11 12 12 11 11 10 11 11 11 11 11 11 12 12 12 13 13 13 13 15 16 15 16 16 16 17 19 21 21 21 21 19 18 20 19 18 17 16 16 16 16 15 15 15 13 12 12 12 11 11 10 10 10 9 9 9 9
8 9 10 11 11 11 11 11 12 12 12 12 12 12 11 12 12 12 11 12 12 11 11 11 11 11 11 11 11 11 11 11 11 12 11 10 10 10 10 11 11 11 11 11 11 11 12 12 12 13 15 16 15 16 17 17 17 18 19 21 20 18 17 17 19 18 18 17 15 15 15 14 14 15 14 13 12 11 9 9 10 9 9 9 9 9 9 9
8 9 10 10 11 11 11 12 12 12 12 12 12 12 11 11 12 12 12 12 12 12 11 11 11 11 11 11 11 11 11 12 11 11 11 10 10 10 11 11 11 11 11 11 11 11 11 11 12 13 14 16 15 15 17 17 17 18 19 20 18 17 17 17 18 17 17 16 15 14 13 12 13 14 14 14 13 10 8 8 8 8 8 8 8 9 9 9
8 9 10 10 11 11 12 12 12 13 13 12 12 12 11 11 11 11 12 12 11 11 11 11 11 12 12 11 12 11 11 11 11 11 10 10 10 10 11 11 11 11 11 11 11 11 11 12 13 13 14 16 15 16 17 16 17 17 16 17 17 17 16 15 16 16 15 16 15 14 13 12 11 11 12 13 12 9 8 8 8 8 9 8 8 9 9 9
9 9 10 10 11 11 12 12 12 13 13 12 12 12 11 11 11 11 12 12 11 11 11 11 12 12 12 12 12 11 11 11 11 10 10 10 10 10 11 11 11 11 11 11 11 11 12 12 13 14 14 15 15 16 16 15 16 16 15 15 16 16 15 14 15 15 15 15 14 13 12 12 11 9 9 9 9 8 8 9 9 8 9 9 9 9 9 9
9 10 10 10 11 11 12 12 13 13 13 13 12 12 11 11 11 12 12 12 12 12 12 12 12 12 12 12 12 12 11 11 11 10 10 10 10 10 11 11 11 11 11 11 12 12 12 12 13 13 14 15 15 15 15 15 16 16 14 14 15 15 14 14 14 14 14 14 13 13 12 12 11 9 8 8 8 8 9 9 9 8 8 9 9 9 9 9
9 10 10 10 11 11 12 12 13 13 13 13 12 12 12 11 11 12 12 12 12 12 12 12 12 12 12 12 12 12 11 11 10 9 9 10 10 10 11 11 11 11 11 11 11 12 11 12 13 13 14 14 14 15 15 16 16 15 14 13 14 13 13 13 13 13 13 12 13 12 11 11 10 10 8 7 7 8 8 8 9 9 9 9 9 9 9 9
9 9 10 10 10 11 11 12 13 13 13 13 13 12 12 12 11 12 12 12 12 12 12 12 12 12 12 12 12 11 10 10 10 9 10 10 10 10 10 11 11 11 11 10 10 12 11 12 12 12 14 14 14 14 15 16 15 14 13 13 13 13 13 13 13 13 13 13 13 11 10 10 11 10 8 7 7 8 8 8 8 9 9 8 9 9 9 9
9 9 9 10 10 11 11 12 13 13 13 13 13 13 12 12 12 12 12 12 12 12 12 12 12 12 12 12 12 11 10 10 9 9 10 10 10 10 10 11 10 11 11 10 10 11 11 11 11 11 13 13 14 14 14 15 15 13 13 13 13 12 12 13 13 13 13 13 13 12 10 10 11 11 8 7 8 8 8 7 7 8 8 8 8 9 8 9
9 9 9 9 10 10 11 12 13 13 13 13 13 13 13 12 12 12 12 12 12 12 12 12 12 12 12 12 12 10 10 10 9 9 9 10 10 10 10 11 10 11 11 11 10 10 10 11 11 11 13 14 14 13 14 15 14 13 13 12 12 12 12 13 13 13 13 13 13 12 11 10 10 9 8 8 8 8 8 7 7 7 8 8 8 9 8 8
9 9 9 9 10 10 11 12 12 13 13 13 13 13 13 13 12 12 12 12 12 12 12 12 12 12 12 12 11 10 10 10 9 9 9 10 10 10 10 10 10 10 11 11 10 9 10 10 11 11 13 14 14 13 13 14 14 14 14 12 12 12 12 12 13 13 14 13 13 14 13 10 8 8 8 8 8 8 8 8 7 7 8 8 8 9 9 8
9 9 9 10 10 10 11 11 12 13 13 13 14 14 14 13 12 12 13 13 12 11 11 12 12 12 12 12 11 10 10 10 9 9 9 9 9 10 10 10 10 10 10 11 10 9 10 10 11 11 12 13 14 14 14 15 15 15 14 13 12 12 12 12 13 13 14 13 13 15 14 10 8 8 8 9 8 8 8 8 7 7 8 8 8 8 8 8
9 9 9 10 10 10 10 11 12 12 13 13 14 14 14 13 13 12 13 13 12 12 11 12 12 12 13 12 11 11 10 10 9 9 9 9 9 9 10 10 10 10 10 10 10 10 10 10 11 12 12 13 13 14 14 15 15 15 14 14 14 12 11 11 12 13 13 13 13 15 13 9 8 8 8 9 9 8 8 8 8 7 8 8 8 8 8 8
9 9 9 10 10 10 10 11 11 12 12 13 14 14 14 13 13 12 12 12 12 12 12 12 12 13 13 11 11 11 10 10 9 8 8 9 9 9 9 9 10 10 10 10 10 10 10 11 11 12 12 13 14 14 14 14 15 15 14 14 14 12 11 11 12 12 13 13 14 15 12 9 8 8 8 9 9 8 8 8 8 7 7 8 8 8 8 8
10 10 10 10 10 10 10 11 11 12 12 13 14 14 14 14 13 12 12 12 12 12 12 12 12 12 12 11 11 11 10 9 9 8 8 9 9 9 9 9 9 10 10 10 10 10 11 11 11 11 12 13 14 14 13 14 14 15 15 14 13 12 11 12 12 11 12 13 14 14 11 8 8 8 8 9 9 9 9 9 8 8 8 8 8 8 8 8
10 10 10 10 10 10 10 11 11 12 12 13 14 14 14 14 13 13 13 13 12 12 12 11 11 12 12 11 10 10 9 9 9 8 8 8 8 8 9 9 9 9 10 11 11 11 11 11 11 11 13 13 14 14 13 13 13 14 15 14 13 13 12 12 11 11 12 12 12 12 10 9 8 9 9 9 9 8 9 9 9 8 8 8 8 8 8 8
10 10 10 9 9 10 10 11 11 12 13 13 14 14 14 14 14 13 13 13 13 12 12 11 11 11 11 11 10 9 9 8 8 8 8 8 8 8 9 9 9 9 11 11 11 11 11 12 11 12 12 12 13 14 13 13 14 14 14 14 13 12 12 11 11 11 12 12 11 11 10 8 8 9 9 9 9 9 8 8 8 8 9 9 9 9 8 8
10 10 10 9 9 10 11 11 11 12 13 13 13 14 14 14 14 13 12 12 12 12 11 10 10 10 9 10 9 8 8 8 8 9 8 9 9 8 9 9 9 10 11 11 11 10 11 11 11 11 11 11 11 12 12 14 15 15 14 14 12 11 10 10 10 11 12 12 11 11 10 9 9 9 9 9 9 9 9 9 8 8 9 9 9 9 8 8
11 10 10 10 9 10 11 11 11 12 13 13 13 13 14 14 14 13 11 11 10 10 10 10 9 8 9 9 9 8 8 9 9 9 8 8 9 9 9 9 10 11 10 10 10 10 10 11 10 10 10 10 10 9 10 14 15 14 13 13 11 10 9 10 10 10 12 11 10 10 10 9 9 8 9 9 9 9 9 9 9 8 9 9 9 8 8 8
11 11 11 10 9 9 11 11 11 12 12 13 13 14 14 13 13 12 10 9 9 8 9 9 8 8 9 9 8 7 7 8 9 9 9 8 8 9 9 10 11 11 9 9 10 10 11 10 9 8 7 7 8 8 11 13 14 13 12 11 10 9 9 9 10 10 11 11 9 10 10 9 9 9 9 9 10 10 9 10 10 9 9 9 9 8 8 8
11 11 11 11 10 9 10 11 11 12 12 12 13 12 10 11 11 11 11 11 10 7 8 8 8 9 9 8 8 7 6 8 9 10 9 8 9 9 9 10 10 10 9 9 11 11 11 10 8 7 6 7 8 10 12 13 12 12 12 11 10 9 10 10 10 10 11 11 9 10 10 9 9 9 9 9 10 10 9 9 9 9 9 9 9 9 8 7
11 11 11 11 11 10 10 10 11 11 11 11 10 9 8 9 10 10 11 12 11 8 8 9 9 9 9 8 7 7 7 8 8 9 8 8 9 8 8 10 10 10 10 11 11 11 10 9 7 6 6 9 10 11 12 12 12 13 12 11 10 10 11 10 9 10 11 11 10 10 11 10 9 9 9 10 9 9 9 8 8 8 9 9 8 7 7 7
11 11 11 11 11 11 10 10 10 10 10 9 8 7 8 9 9 10 10 11 10 9 10 10 9 9 9 8 8 7 8 8 8 8 8 8 7 7 8 10 10 10 10 10 10 9 9 8 6 7 8 11 12 11 12 13 12 12 12 12 11 11 11 10 9 10 11 11 11 11 11 10 10 10 10 10 9 9 9 8 8 8 8 8 7 6 7 7
11 11 11 11 11 11 10 10 10 9 9 8 7 7 8 9 8 9 10 10 10 11 11 10 10 10 9 8 8 7 7 8 8 8 8 7 7 7 8 9 9 9 9 9 10 9 8 8 7 9 10 11 12 11 12 12 12 11 11 11 11 11 11 10 11 12 11 10 10 11 12 12 10 11 11 11 10 10 10 9 9 9 8 7 7 7 7 7
11 11 10 10 11 11 11 10 8 8 8 7 6 7 7 8 7 7 10 11 11 11 11 11 11 10 10 9 7 6 7 9 9 9 9 8 7 8 9 9 9 9 8 9 9 8 7 8 9 10 11 11 12 12 10 11 13 12 10 11 11 11 11 11 12 14 13 11 10 10 12 13 11 11 12 11 11 11 11 10 10 9 8 8 8 9 8 9
11 11 10 10 10 11 11 10 8 8 8 6 6 7 7 7 7 7 11 12 11 11 11 11 11 10 10 8 7 8 8 8 9 9 9 8 8 9 9 9 10 9 8 9 9 7 7 8 9 10 11 11 12 12 10 11 13 11 9 10 11 11 11 11 13 14 13 11 11 11 13 14 13 12 11 10 10 11 11 11 11 10 9 9 10 10 10 10
11 11 10 10 9 10 9 9 8 7 7 6 6 7 7 7 7 9 12 11 10 11 10 10 11 10 9 8 8 8 7 7 8 9 9 9 9 10 10 9 9 9 9 9 8 6 6 7 8 9 10 11 10 9 9 11 11 10 10 11 10 11 12 13 14 13 12 13 13 12 12 15 15 12 10 9 10 12 12 13 13 11 11 11 11 11 10 10
11 11 10 10 9 9 8 8 8 6 5 6 6 7 7 7 7 11 12 10 10 11 10 10 11 9 8 8 9 8 7 7 7 8 9 9 9 10 9 9 9 9 9 9 8 6 6 6 6 7 9 9 8 8 9 11 11 10 10 10 10 11 13 14 15 14 14 15 13 11 11 14 16 13 11 11 11 13 14 14 14 13 12 11 11 11 10 10
11 11 10 10 9 8 8 7 6 6 6 6 7 7 6 7 10 12 11 10 11 11 9 10 9 8 7 8 9 9 7 7 6 7 8 8 8 9 7 8 9 9 8 8 7 6 7 6 6 6 7 8 9 10 11 11 11 11 12 12 12 14 14 15 15 15 15 15 12 10 10 13 16 15 14 13 12 13 15 15 14 12 12 12 11 11 11 10
11 11 10 10 9 8 8 7 6 6 6 6 7 6 7 10 11 11 9 10 11 10 9 8 7 7 6 6 8 8 8 8 7 7 8 8 8 8 7 7 9 10 9 8 8 7 7 7 7 7 7 8 10 11 11 11 12 12 14 14 14 15 15 15 15 15 15 14 11 10 9 11 15 16 15 15 13 12 14 14 14 13 12 12 12 11 11 11
12 11 10 9 9 9 8 7 6 5 6 7 7 7 11 13 11 9 8 10 10 9 7 7 6 6 5 5 7 7 7 8 7 7 6 7 7 6 6 6 6 9 9 8 8 8 8 8 8 8 8 8 10 12 12 12 13 13 15 15 14 13 14 13 13 14 14 13 10 10 10 11 15 16 15 14 14 13 13 14 14 13 13 13 12 12 11 10
12 11 11 10 9 9 9 8 7 6 6 6 7 10 13 13 10 7 8 9 9 6 5 5 5 5 6 7 8 6 7 7 7 8 7 7 8 6 6 5 5 8 9 8 9 9 8 9 8 8 9 8 8 11 13 13 13 14 14 15 14 13 12 12 11 11 12 12 10 9 10 13 16 16 15 14 14 12 11 12 12 12 12 13 12 12 11 9
12 12 11 10 9 9 9 8 8 7 6 7 10 13 13 11 9 7 7 7 5 3 3 4 4 5 7 8 7 7 8 8 7 7 8 8 7 6 7 6 5 7 9 9 9 9 8 9 8 7 8 8 8 9 10 11 12 12 11 13 14 14 13 12 11 12 12 11 10 9 11 14 16 15 13 12 11 10 9 9 9 9 10 10 10 10 10 9
12 12 11 10 10 9 8 8 8 7 7 9 12 13 11 10 8 7 6 6 4 3 4 4 4 6 9 8 7 6 8 9 7 7 7 7 7 6 5 6 5 5 7 9 10 8 8 8 7 7 6 7 8 7 6 9 13 11 9 13 14 12 12 10 9 10 10 11 11 11 12 15 15 12 11 10 10 9 9 8 8 9 9 9 9 9 9 9
12 12 11 10 10 9 9 9 8 8 9 11 12 10 8 7 6 6 6 5 4 3 4 5 6 8 9 8 8 7 7 8 8 8 7 6 6 6 5 5 4 3 5 8 9 9 8 8 8 8 7 7 7 7 5 7 12 12 11 12 10 8 9 10 9 7 9 13 13 11 13 15 14 13 11 9 10 10 9 9 9 9 9 9 9 10 10 10
12 12 11 10 10 10 10 9 9 9 10 12 11 7 5 5 4 4 4 3 3 2 3 8 8 8 8 8 8 8 8 8 8 8 8 7 7 6 5 4 4 3 3 5 8 9 9 9 9 8 9 8 5 5 6 6 8 12 13 11 8 8 9 11 12 10 11 14 13 10 13 14 15 15 13 11 12 11 10 10 9 9 9 9 9 10 10 10
12 12 11 10 10 10 10 10 9 10 11 10 8 5 3 4 3 2 2 2 2 2 5 8 8 7 7 8 8 6 6 9 8 7 8 9 8 6 5 4 5 4 2 2 7 9 8 10 10 8 9 8 5 6 9 9 7 10 11 8 9 11 13 13 13 12 13 14 12 11 12 12 14 16 15 14 14 13 11 10 10 10 10 10 10 10 10 9
12 13 12 10 10 10 10 10 9 10 13 10 7 5 3 3 3 0 -0 1 1 3 6 7 7 7 7 6 7 6 5 7 7 6 8 9 8 6 5 4 4 5 3 3 6 7 7 11 11 9 9 8 8 9 10 10 9 9 9 8 8 10 11 12 10 11 14 13 11 13 13 14 15 14 14 14 13 13 12 11 11 11 11 11 11 10 10 10
12 15 13 10 10 11 11 11 10 10 11 7 5 5 2 3 2 -1 -1 0 2 4 6 6 6 7 6 5 5 5 5 5 6 6 7 7 7 6 4 3 4 4 4 4 5 5 8 11 11 11 10 9 9 8 7 7 8 9 11 11 9 8 8 9 8 7 10 12 13 14 14 16 15 12 12 13 12 11 10 10 11 11 10 10 10 10 10 9
12 16 14 10 11 11 11 11 7 5 6 3 3 3 1 3 3 1 -1 -1 1 3 4 5 5 5 5 5 5 4 5 6 5 6 7 7 8 7 4 3 3 3 4 6 7 5 8 11 10 10 10 9 7 5 2 4 4 6 8 9 9 8 9 12 11 5 5 9 11 12 15 16 14 11 11 12 11 10 9 9 9 10 10 10 10 9 9 9
14 16 14 11 12 11 11 10 2 0 4 4 3 2 2 3 3 2 1 -0 1 3 3 4 5 4 4 5 5 4 5 6 5 6 7 6 7 7 4 2 2 1 4 7 7 4 5 9 9 8 7 7 6 3 0 1 2 4 6 6 6 7 10 14 15 10 6 6 6 9 13 16 14 10 10 10 9 9 8 7 8 9 10 10 9 9 8 8
15 16 13 11 11 11 12 11 4 2 3 2 1 1 2 2 2 3 3 2 3 4 5 4 4 4 4 4 4 4 5 6 6 6 6 5 5 6 3 2 2 2 4 7 7 4 5 9 9 8 7 7 5 2 -0 0 2 5 7 5 5 7 8 9 11 10 10 8 8 11 14 16 13 9 8 8 7 7 7 6 7 8 9 9 9 8 7 7
13 12 12 12 12 13 15 14 10 5 3 2 2 2 2 1 2 4 4 3 3 4 5 5 4 4 4 3 4 5 5 7 7 6 5 5 6 5 2 2 3 3 5 6 6 6 8 9 9 10 11 10 9 8 6 5 4 6 7 4 4 4 4 5 6 9 11 9 9 13 16 16 13 8 7 8 7 8 9 7 7 7 8 9 8 8 7 7
12 12 12 11 10 11 11 9 9 7 4 4 5 4 4 3 2 3 3 3 2 2 5 5 3 4 3 2 4 5 5 7 7 6 5 5 6 4 3 2 2 3 4 3 3 5 6 6 8 12 14 14 14 13 11 9 7 6 5 4 4 3 4 7 9 12 14 8 6 12 16 16 13 10 10 10 9 10 10 9 8 7 8 8 7 8 7 6
14 15 15 13 9 7 5 2 5 8 6 6 8 5 5 6 4 2 3 4 3 2 4 4 2 3 4 4 6 7 5 6 6 6 6 5 6 5 3 2 3 3 3 2 2 3 3 3 3 8 11 12 12 9 6 7 8 8 6 5 5 4 3 6 10 13 13 8 8 11 12 14 15 13 12 11 10 10 11 10 10 9 8 8 7 7 7 6
14 15 12 13 12 10 8 5 6 8 7 8 9 7 6 7 6 4 4 4 3 3 3 3 2 5 6 6 8 8 6 6 6 6 5 5 5 5 3 2 3 3 3 2 1 2 7 7 2 3 5 4 4 3 2 4 7 7 7 7 5 4 4 6 10 12 10 10 14 12 8 11 16 14 12 12 11 11 11 10 10 10 9 8 7 7 6 6
11 11 5 7 11 12 10 9 7 7 7 7 6 5 6 7 7 7 6 4 3 3 5 6 4 4 4 4 7 9 7 7 8 6 5 5 5 5 6 4 3 3 3 3 1 3 8 9 1 0 3 -0 -2 0 1 2 4 4 5 6 5 4 5 7 9 8 8 12 14 10 7 10 14 13 13 12 11 11 11 10 9 8 7 7 7 7 7 7
7 8 3 3 7 7 6 5 5 6 7 7 6 5 7 9 8 6 4 5 6 5 6 8 7 3 1 1 5 9 8 9 10 7 5 5 4 5 7 7 5 3 3 4 2 1 6 7 -0 -1 3 1 -1 -0 -0 1 3 4 4 5 5 5 4 6 7 5 6 9 8 6 6 8 10 11 11 11 10 9 8 8 8 8 8 8 7 7 8 8
8 10 7 6 6 4 3 3 5 9 8 7 8 7 6 9 9 5 3 5 9 8 6 8 6 3 1 1 4 7 6 6 8 6 4 5 5 5 6 6 5 4 4 4 2 2 6 6 -3 -3 6 6 0 -0 1 1 2 5 5 4 3 4 4 4 4 4 4 6 5 4 5 7 9 10 9 9 8 7 7 8 9 9 9 8 7 8 8 8
7 7 7 10 9 5 5 5 5 10 11 10 11 8 5 8 8 5 4 3 5 7 6 7 6 3 3 3 4 5 4 3 5 4 3 4 4 4 4 3 2 3 3 2 2 3 5 5 -2 1 12 11 2 1 2 1 2 5 7 7 3 3 5 5 4 5 6 8 7 6 9 11 11 8 8 9 8 8 9 9 9 10 9 8 8 8 8 8
6 6 6 11 11 5 5 6 6 10 12 9 8 6 6 8 6 5 7 4 2 3 3 4 6 5 5 6 4 3 3 2 2 1 1 1 1 0 1 1 0 1 2 1 2 0 1 5 5 6 13 13 4 1 2 4 8 12 12 10 6 4 5 5 5 5 6 8 9 11 13 13 9 7 8 10 10 10 10 10 9 9 9 8 8 8 8 8
Height
849 848 847 847 846 845 844 843 842 841 840 838 837 835 834 833 832 831 830 829 829 828 827 827 825 825 824 824 823 823 822 821 822 821 821 821 821 820 819 818 816 815 814 813 812 810 809 807 807 807 805 804 805 804 804 805 804 803 802 805 806 802 805 805 805 808 817 832 838 837 837 839 847 848 848 851 854 857 860 864 869 870 871 873 875 874 872 869
849 848 847 847 846 845 844 843 842 841 839 838 836 835 834 832 831 830 829 828 828 827 827 826 825 825 824 823 823 822 822 822 821 821 821 821 821 819 818 818 816 815 814 814 813 812 810 808 808 807 805 804 805 805 804 805 803 802 801 803 804 802 810 812 807 811 818 828 835 837 839 840 845 848 849 855 863 862 863 870 871 872 874 875 876 874 873 870
849 848 847 846 846 845 844 843 842 840 839 838 836 835 833 832 831 829 829 828 827 827 826 826 825 824 824 823 823 822 822 822 821 821 821 821 820 819 818 817 816 815 814 814 813 813 811 810 810 808 805 804 805 805 803 805 803 804 802 802 808 810 815 816 811 815 819 824 834 841 843 845 849 850 851 858 865 868 874 879 877 878 879 878 877 876 874 871
849 848 847 846 846 844 843 842 841 840 839 837 836 834 833 832 830 829 829 828 827 826 826 826 825 824 824 823 822 822 822 821 821 822 822 820 819 818 817 816 816 815 814 814 813 813 812 811 810 808 806 804 807 806 803 805 803 804 805 804 811 814 817 820 818 820 824 827 834 842 846 851 854 853 854 855 859 873 882 884 883 883 882 881 879 877 876 874
849 848 847 846 845 844 843 841 841 840 838 837 835 834 833 831 830 830 829 828 827 826 826 825 825 824 824 823 822 821 820 820 822 822 821 820 819 818 816 816 815 815 814 814 813 812 812 810 810 808 806 804 806 805 803 806 803 808 814 812 813 814 820 828 825 826 830 831 836 842 849 855 858 860 863 860 864 880 886 885 885 884 884 882 881 879 878 875
849 848 847 846 844 843 842 841 840 839 838 837 835 834 832 831 830 829 828 827 826 826 826 825 825 824 824 824 822 821 820 821 823 822 821 819 818 817 816 815 815 815 814 813 813 812 811 810 809 807 806 805 806 804 805 808 804 810 821 818 815 816 824 831 830 831 833 833 839 846 852 857 860 869 874 873 878 886 886 886 886 885 885 883 882 880 879 877
849 848 846 845 844 842 841 840 839 839 838 836 835 834 833 831 830 829 828 827 826 825 825 825 825 824 824 823 823 822 821 823 824 822 820 818 817 816 815 815 814 815 814 814 813 811 811 810 808 807 806 806 806 806 807 808 804 809 822 823 821 822 827 833 834 836 836 839 845 848 854 859 862 872 878 881 886 887 887 887 886 886 885 884 883 881 880 879
848 847 846 845 843 842 841 840 839 838 837 836 835 834 833 832 830 829 827 826 826 825 825 825 824 824 824 823 822 822 823 824 823 821 819 817 815 815 815 814 814 815 814 814 813 812 812 810 809 808 807 806 807 808 806 806 809 814 823 827 827 829 832 836 838 840 842 845 848 850 859 865 867 872 880 887 890 889 888 888 887 886 886 885 884 883 882 881
848 847 845 844 843 841 840 839 838 838 837 836 835 834 833 831 830 828 827 826 826 825 825 824 824 824 823 823 822 822 825 826 823 821 818 816 815 814 814 814 814 815 814 814 814 812 812 810 811 809 807 807 807 808 806 806 814 819 824 828 830 835 838 838 841 844 845 848 848 852 864 870 869 871 882 892 892 891 891 890 889 887 886 886 886 884 883 882
847 846 845 843 842 841 839 838 838 837 836 835 834 834 833 832 830 828 827 826 825 825 825 824 824 824 823 823 821 823 827 826 823 820 817 816 815 815 815 814 814 815 814 814 814 813 812 812 812 811 809 809 809 811 810 808 814 820 824 829 833 839 843 841 844 845 846 851 849 851 866 872 868 871 886 894 892 892 893 892 891 889 888 888 887 886 885 884
847 845 844 843 841 840 838 837 837 836 835 835 834 833 832 831 830 828 827 826 825 824 824 824 824 823 824 823 823 825 827 825 823 820 817 816 815 815 815 814 815 815 815 814 815 814 814 814 813 813 809 808 810 812 813 811 816 821 822 832 839 841 846 846 847 847 847 853 853 850 862 873 874 880 891 895 893 893 893 893 892 891 890 889 888 887 886 886
846 845 843 842 840 839 837 836 836 835 835 834 834 833 832 831 829 828 826 826 825 824 823 823 823 823 823 823 825 827 827 825 823 820 818 817 816 816 815 815 815 815 815 815 815 815 814 814 813 812 809 807 810 813 817 816 816 820 819 831 844 843 848 851 850 849 848 852 853 847 856 877 886 891 895 894 894 894 893 894 894 893 891 890 889 889 888 888
846 844 843 841 839 838 837 836 835 834 834 833 833 832 831 831 829 827 826 826 825 823 823 823 823 823 822 824 826 827 826 825 823 820 818 817 817 817 816 816 815 815 815 815 816 815 814 814 813 813 810 808 810 812 817 816 815 820 821 830 841 845 853 856 852 851 850 852 853 847 858 884 895 894 895 894 894 895 893 894 894 894 892 891 891 890 890 889
845 843 842 840 839 837 836 835 834 833 833 833 832 832 831 831 829 826 825 826 825 822 822 823 823 823 822 824 826 826 826 824 822 819 818 818 817 817 817 816 816 815 816 816 816 815 814 814 813 813 811 810 811 812 816 817 816 820 825 831 835 845 859 859 855 855 853 854 852 847 863 889 898 895 895 894 894 894 894 895 895 895 893 893 892 891 890 890
844 843 841 839 838 836 835 834 833 832 832 832 832 831 831 831 829 826 825 825 825 823 822 823 823 822 823 825 826 826 825 823 822 820 819 819 818 818 818 817 817 816 816 816 816 815 815 814 813 813 813 812 811 812 816 819 818 817 825 835 835 845 861 860 857 857 854 854 850 848 869 892 896 896 895 894 895 895 894 895 895 896 895 893 893 891 891 891
844 842 840 839 837 835 834 833 832 831 831 831 831 831 831 831 830 826 825 825 824 823 822 823 823 821 823 827 827 825 824 823 823 822 821 820 819 819 819 818 818 817 817 817 816 816 814 814 815 815 814 813 810 811 816 821 824 819 820 832 837 845 858 859 859 860 856 856 853 852 872 892 895 895 896 894 895 895 894 894 894 895 895 894 893 893 892 891
843 842 840 838 836 835 834 833 832 830 830 830 830 830 830 832 831 827 826 825 824 824 823 823 823 821 824 828 828 827 827 826 825 823 822 821 821 820 820 819 819 818 817 816 816 815 815 815 816 817 815 813 811 811 816 823 825 823 822 830 838 844 851 856 860 862 857 858 860 860 873 890 893 894 895 895 895 895 895 894 894 894 894 894 894 893 892 891
843 841 839 837 836 834 833 832 831 829 829 829 829 830 830 832 831 828 827 825 824 823 822 824 822 823 827 828 831 831 829 827 826 824 823 822 822 821 820 820 819 819 817 816 817 816 816 816 816 818 819 818 816 812 814 818 815 817 822 828 839 848 852 858 864 865 859 860 866 869 878 891 894 894 895 895 895 895 896 895 895 895 894 894 894 893 892 892
842 840 838 837 835 834 833 832 831 829 828 828 829 830 830 831 830 829 828 826 825 827 830 833 831 834 836 834 835 833 829 828 827 825 824 823 822 822 821 820 820 819 817 816 818 819 817 817 819 820 823 824 822 820 818 813 808 813 820 826 839 853 862 865 868 867 860 862 870 872 880 890 893 895 895 895 895 895 896 896 897 897 895 895 894 894 894 894
841 839 838 837 835 834 833 831 830 829 828 828 828 829 830 831 831 832 833 832 833 836 839 841 841 842 840 837 837 833 830 829 828 827 825 823 823 822 821 821 820 818 819 819 820 822 818 819 825 827 830 830 829 832 826 814 812 818 825 833 845 857 868 870 869 869 861 866 880 879 881 889 892 895 896 894 895 894 895 895 895 896 895 895 895 895 895 894
841 839 838 836 834 833 832 831 830 829 828 827 828 828 829 831 831 833 837 839 841 840 840 842 842 842 840 838 837 835 834 830 827 827 825 824 823 822 822 821 819 820 825 826 824 822 819 824 835 838 840 841 838 835 825 817 819 824 832 842 853 863 871 873 869 869 864 869 886 885 883 891 893 895 896 894 894 893 894 894 894 895 894 895 895 895 895 895
841 839 837 835 834 833 831 831 830 828 828 827 828 829 829 831 831 832 835 837 840 841 841 842 842 840 838 837 837 837 835 832 828 826 826 825 823 823 824 821 821 825 827 825 820 819 823 831 841 844 845 843 838 830 821 822 826 831 839 848 859 866 868 872 872 870 865 869 886 887 884 892 895 894 895 895 894 893 895 896 895 895 894 895 895 895 896 896
841 839 837 835 833 832 831 830 830 829 828 828 828 830 831 832 832 832 832 833 838 841 842 841 840 839 837 837 838 836 834 834 832 829 828 826 826 827 826 822 824 826 825 822 819 823 831 838 845 847 845 838 832 829 823 825 830 835 842 849 861 862 858 868 877 874 869 871 882 884 883 891 894 894 895 893 894 895 896 898 897 897 896 894 896 896 896 895
842 840 838 835 833 831 830 830 830 829 829 830 830 831 833 833 833 833 834 836 839 839 839 839 839 838 838 839 838 837 836 835 835 834 831 829 830 832 829 826 827 828 829 827 824 831 839 844 848 846 841 832 828 831 826 827 835 841 844 847 855 859 857 868 876 873 873 877 880 879 882 890 892 892 891 891 894 895 894 896 895 895 896 896 896 896 895 894
841 840 838 836 834 831 829 830 830 830 831 832 832 833 833 833 834 833 833 837 839 837 837 838 838 839 840 840 838 838 837 835 836 836 833 833 833 832 831 830 830 833 836 831 829 838 844 844 845 840 835 830 830 833 831 830 837 848 854 851 851 857 862 868 868 865 872 883 885 882 881 885 890 890 886 887 890 890 891 893 892 892 894 896 895 895 894 893
841 840 838 835 834 831 829 830 831 831 831 833 834 834 834 834 834 834 834 836 838 838 838 837 838 840 840 841 839 837 836 835 837 837 834 834 833 831 831 831 831 835 839 835 835 846 851 846 841 837 836 834 830 833 839 836 833 847 860 857 851 854 860 865 861 856 865 879 887 885 877 878 887 885 882 886 887 886 888 889 889 890 892 893 892 891 891 891
841 840 838 835 833 831 830 831 831 831 831 834 835 834 835 834 834 834 832 836 842 843 843 842 842 844 844 844 840 837 840 841 837 836 835 834 834 831 831 833 832 836 839 837 842 855 857 849 843 839 837 835 833 836 845 838 832 849 863 859 855 853 857 861 856 854 866 876 882 881 872 870 879 883 885 891 890 886 885 883 884 886 888 889 888 888 888 889
840 840 838 835 833 831 831 832 832 832 832 834 834 834 836 833 836 834 830 843 854 848 848 849 845 847 847 846 844 842 848 847 841 839 837 835 835 830 831 836 836 837 838 836 850 864 861 856 854 847 840 842 846 850 849 840 841 858 863 859 860 858 856 855 851 858 866 868 873 877 873 865 869 881 890 892 889 882 877 874 875 880 883 884 884 885 886 888
840 839 838 836 834 832 832 832 832 833 833 834 834 835 835 834 835 831 832 852 860 851 852 852 847 851 852 848 846 848 850 849 848 847 840 838 837 833 837 841 837 841 843 840 854 865 862 863 862 855 850 852 857 857 851 842 846 859 861 861 864 860 855 851 850 858 861 861 872 883 881 867 861 872 882 885 883 874 867 867 869 874 878 880 882 883 884 886
840 839 838 836 834 832 832 832 833 833 833 834 834 834 835 835 833 834 848 861 859 855 858 856 856 861 860 854 847 848 852 852 854 850 842 842 842 839 842 843 838 842 847 849 858 865 864 864 863 861 862 860 857 854 850 844 846 854 857 856 856 852 850 849 850 856 858 863 879 891 890 876 862 861 866 871 873 867 863 866 869 873 876 877 879 881 882 883
840 839 838 837 835 833 832 833 833 833 833 834 835 835 835 834 836 850 867 866 858 861 863 863 867 867 867 867 859 854 855 855 856 853 849 849 848 846 847 848 844 840 847 856 860 862 862 861 863 864 865 862 854 850 853 850 848 851 849 846 850 851 851 856 858 858 859 868 885 894 895 885 867 858 858 862 867 868 865 864 867 871 873 874 877 878 879 880
840 840 839 837 836 834 833 833 833 833 834 834 835 835 832 832 847 869 875 864 860 867 873 874 874 871 872 871 865 863 861 858 858 858 861 858 855 860 861 863 862 849 852 862 860 860 863 863 864 863 862 864 857 851 854 853 849 848 844 842 852 858 860 866 870 868 866 875 891 896 895 885 865 854 857 860 863 867 867 864 865 867 868 870 872 873 875 877
840 840 839 837 836 835 834 834 833 833 834 835 835 834 828 833 860 883 880 869 870 879 885 883 879 877 873 865 864 868 865 863 862 859 862 859 857 863 864 869 870 854 853 861 857 860 865 862 864 864 862 865 864 855 851 853 850 847 846 845 852 861 868 879 889 886 879 882 894 899 894 878 859 852 856 860 863 867 869 869 869 869 869 868 869 871 874 877
841 840 839 838 837 835 835 834 834 834 834 835 833 829 830 846 873 888 884 881 887 891 890 887 883 877 869 865 869 869 863 863 866 862 859 857 860 868 866 867 872 863 856 856 857 864 868 868 874 876 871 869 871 866 863 861 855 857 861 852 850 856 860 872 881 876 875 883 893 900 891 867 855 859 863 865 870 873 874 874 874 874 875 873 873 874 875 877
841 841 840 838 837 836 836 835 835 835 834 833 833 835 846 865 882 887 886 889 894 894 889 888 888 875 864 866 871 871 865 860 864 865 863 865 869 878 879 874 878 878 864 855 859 869 877 881 882 882 881 879 875 875 880 870 856 865 869 854 854 863 866 882 893 889 886 882 884 891 880 862 859 865 870 872 873 874 875 876 876 874 875 876 876 875 875 876
841 841 840 839 838 837 836 836 835 835 835 832 836 854 873 883 888 888 890 892 894 897 892 883 880 871 863 866 867 869 868 864 865 864 867 877 877 880 887 883 883 887 876 864 864 868 875 882 882 879 881 881 878 879 884 875 861 862 863 861 873 881 879 885 898 910 899 873 874 887 872 859 861 862 869 875 872 872 874 875 875 874 874 876 875 874 875 874
840 841 841 840 839 837 837 837 835 835 835 832 844 875 896 896 895 896 897 897 898 903 894 875 870 873 873 871 868 870 869 864 866 864 864 873 876 880 888 888 887 889 889 882 870 865 870 875 880 880 875 878 885 884 881 881 874 859 857 871 884 886 883 873 873 890 883 863 875 890 875 863 860 856 862 869 865 866 870 872 874 874 873 874 873 872 873 873
841 841 841 841 840 839 838 836 837 837 834 843 867 892 902 899 900 902 903 903 903 902 891 876 874 879 880 876 875 881 877 865 869 876 870 867 874 884 890 890 888 887 893 890 874 869 872 868 876 882 877 880 888 882 873 875 878 869 868 881 879 868 864 862 866 873 867 868 880 882 880 876 863 855 856 859 860 862 866 870 871 870 869 869 870 870 870 871
841 840 841 844 842 841 840 837 839 836 833 854 880 893 900 902 902 907 908 906 905 898 888 884 883 881 883 885 883 887 887 878 878 882 876 871 877 887 892 894 890 887 891 890 880 880 875 862 868 878 878 880 880 876 874 875 879 877 874 881 883 876 870 871 882 876 861 873 883 873 872 868 856 859 860 857 861 863 865 869 867 866 867 867 868 869 869 870
840 838 842 846 841 842 843 837 838 840 848 875 892 895 904 905 901 908 911 906 904 897 889 890 889 884 887 894 893 892 892 889 887 884 882 884 883 886 895 898 894 891 891 888 886 887 874 856 863 872 872 876 881 888 896 893 890 883 872 871 879 890 892 885 895 904 884 871 871 866 863 856 853 863 864 859 863 866 868 869 867 867 867 867 868 868 868 868
838 838 843 845 843 843 840 840 857 870 879 895 901 902 908 904 900 906 908 908 906 899 896 895 892 892 894 893 894 897 894 890 893 890 887 888 883 885 896 899 899 897 889 880 881 884 874 860 868 877 876 883 894 908 917 912 908 901 887 882 883 888 886 867 877 916 918 893 883 874 860 852 857 865 866 864 866 868 872 872 868 867 865 865 867 867 868 868
838 840 845 845 843 842 840 855 885 896 892 897 901 903 905 902 902 903 904 908 906 899 899 898 896 899 900 896 896 901 896 892 896 893 888 892 890 889 897 901 902 901 891 880 882 892 888 873 878 892 897 900 905 916 922 919 918 912 900 901 901 893 880 857 856 889 911 917 916 897 868 853 858 867 869 868 871 871 873 875 872 868 865 866 867 867 868 867
841 843 845 845 844 842 843 861 888 897 897 904 908 906 905 904 904 902 902 905 902 898 897 898 900 899 899 902 901 899 896 892 896 895 893 897 896 893 900 902 899 900 893 883 885 894 889 878 882 896 900 901 906 917 925 923 918 906 898 906 906 895 890 880 874 878 886 901 900 878 863 854 856 871 875 872 876 876 874 876 874 870 868 867 867 867 867 866
847 847 846 845 842 840 842 853 872 890 902 905 904 903 905 907 905 900 901 902 901 900 896 898 902 899 900 905 902 899 897 890 892 897 897 898 896 897 903 901 898 898 892 889 890 888 881 879 880 878 879 883 887 893 898 905 909 901 898 909 909 907 909 902 898 886 874 890 893 865 853 853 857 873 877 873 876 873 870 874 874 872 869 867 867 866 866 866
848 847 848 848 843 843 853 863 869 882 897 898 895 899 900 901 904 903 902 903 905 904 898 899 903 902 904 907 900 900 899 890 890 897 899 898 895 898 903 901 901 900 895 899 899 890 889 896 886 864 855 857 858 864 872 882 895 899 904 911 910 913 911 895 887 872 862 896 911 873 848 850 858 868 868 868 873 869 866 870 871 872 870 868 868 866 865 866
846 845 847 850 851 855 869 880 876 875 887 887 885 895 897 893 900 905 903 901 904 905 901 901 905 903 901 900 895 894 897 896 895 895 899 898 893 896 902 901 901 901 900 901 900 899 903 911 910 888 868 865 867 880 895 893 888 891 899 906 908 913 914 899 880 863 867 897 898 872 865 860 853 860 862 863 869 867 866 867 866 868 868 867 869 866 865 866
847 850 856 854 855 861 870 879 878 875 879 877 877 890 895 891 896 900 900 901 902 904 902 903 906 899 894 894 889 888 896 899 895 896 901 902 898 898 901 903 902 900 900 900 902 902 889 890 916 917 902 906 909 911 918 909 895 893 894 898 905 911 914 902 880 872 881 881 863 868 888 872 849 856 861 861 866 866 865 865 864 866 867 866 867 866 865 865
852 859 871 866 858 863 866 871 879 880 880 882 888 895 892 889 892 892 896 901 902 902 898 895 901 903 902 903 890 884 891 892 890 898 902 901 901 897 893 898 901 899 900 900 902 901 881 883 920 926 913 928 935 925 924 918 910 911 904 899 904 910 909 897 885 889 889 868 857 878 894 874 855 859 860 859 865 865 864 866 866 867 867 866 866 865 863 862
860 863 875 873 868 876 879 880 883 880 879 884 890 894 889 883 888 895 902 900 895 899 896 888 895 905 911 912 898 886 889 885 883 896 904 903 905 900 890 892 897 899 900 898 902 906 889 893 929 933 912 924 935 928 929 925 915 912 908 906 906 907 909 901 895 903 900 885 887 899 898 884 869 864 862 861 865 868 868 868 867 866 865 864 864 863 861 860
857 857 866 870 874 885 888 887 883 875 878 882 879 888 893 884 886 898 906 899 888 892 896 891 897 908 911 912 901 892 897 896 890 898 906 904 902 902 899 899 901 900 898 899 905 904 886 896 940 937 897 900 927 929 925 926 918 908 903 910 914 911 912 911 908 911 906 897 900 905 901 888 870 865 867 865 866 871 869 866 864 861 862 863 862 861 859 858
853 854 858 859 869 884 885 886 885 872 871 874 872 885 893 885 887 896 902 906 900 894 896 895 898 906 908 907 903 901 906 908 903 905 910 907 905 906 907 910 912 905 902 906 906 901 892 901 932 919 867 873 918 925 917 924 921 905 890 894 908 911 904 902 904 901 893 887 893 895 883 868 862 868 870 865 866 868 864 862 862 859 860 862 860 859 858 856
854 856 857 853 864 884 885 884 885 872 867 874 879 888 890 886 892 894 891 901 908 904 904 903 900 901 901 901 906 909 909 910 910 912 914 913 914 916 913 915 918 912 912 913 910 915 913 897 903 898 859 862 909 924 918 909 886 868 866 871 889 901 897 895 898 896 890 884 879 869 856 854 865 872 867 860 860 861 858 859 860 859 859 860 859 858 857 854
Wind_Speed
12 10 10 9 9 10 11 12 13 16 19 20 20 17 14 14 13 12 11 9 8 7 7 7 5 4 5 6 8 9 5 3 4 7 8 8 9 12 13 12 12 12 12 10 10 9 4 4 6 6 1 3 1 2 2 0 0 3 5 7 7 8 7 3 6 9 13 16 13 9 9 14 14 10 8 10 16 16 16 16 13 14 14 13 11 10 11 13
13 11 11 10 10 11 12 13 15 18 19 20 20 16 14 15 15 12 11 10 8 7 6 6 5 4 5 5 7 8 3 3 3 8 9 9 11 12 12 11 10 11 10 8 8 9 5 5 7 6 1 3 0 2 3 1 2 3 5 7 6 4 3 3 8 13 15 17 15 12 12 12 11 8 6 8 12 13 15 12 10 12 12 13 14 14 14 15
13 12 12 11 11 12 13 14 16 18 18 19 18 15 13 14 14 12 11 10 8 6 7 6 5 5 5 6 8 6 1 3 2 7 10 12 13 13 12 10 10 9 8 6 6 6 6 5 7 5 1 2 1 2 4 2 2 2 3 7 4 6 7 6 10 14 15 19 18 14 12 14 11 8 8 12 14 14 13 8 8 10 11 11 13 15 14 15
14 13 13 12 12 13 13 14 16 17 17 17 17 14 13 13 12 11 11 10 8 6 8 6 4 6 6 6 9 6 1 4 2 7 11 14 14 14 13 11 8 7 6 5 5 5 7 5 5 3 2 3 2 3 5 2 2 2 1 4 6 8 9 9 12 15 15 18 18 16 15 15 12 10 8 11 13 11 9 7 7 7 9 9 10 13 13 14
13 13 13 13 13 13 13 14 15 15 15 16 16 14 13 12 11 10 8 9 9 8 8 7 5 6 7 7 9 6 3 3 4 9 12 15 16 16 14 10 6 5 4 4 4 5 5 3 3 1 2 3 5 6 5 3 0 3 3 4 8 9 11 11 13 17 16 16 18 16 14 12 11 13 12 11 11 7 5 6 7 7 7 7 8 10 11 14
13 13 13 13 13 13 13 13 13 12 13 15 14 13 14 13 12 10 7 9 10 8 6 6 5 5 7 7 9 8 1 1 7 10 13 17 19 17 12 8 5 3 4 4 3 3 3 2 2 3 3 3 6 6 5 2 2 3 4 5 8 11 15 12 12 15 14 16 16 13 12 12 14 14 14 16 13 7 6 6 7 8 8 8 8 9 12 14
13 13 13 13 13 13 12 11 11 11 12 12 12 12 14 14 13 10 8 10 11 7 4 4 4 4 6 5 5 8 4 3 9 13 17 21 19 15 9 5 3 2 3 3 2 2 2 2 3 3 3 4 4 4 6 5 3 8 8 9 11 14 17 13 12 13 14 17 15 15 15 13 15 12 11 15 13 8 8 7 8 8 9 10 10 11 13 13
13 14 14 14 14 13 12 10 9 8 8 8 10 12 14 14 14 10 8 10 10 5 2 3 3 4 6 5 1 3 6 6 11 17 22 21 14 8 4 3 3 3 2 2 2 1 1 2 3 2 4 4 3 6 10 10 9 10 11 11 13 15 16 15 15 16 18 17 16 20 18 15 16 14 13 13 10 9 9 9 9 9 9 10 10 11 12 12
14 15 15 15 15 14 12 9 7 5 4 5 9 12 13 15 15 11 8 9 8 4 3 3 3 4 6 5 2 1 6 9 13 19 23 17 9 3 1 1 3 4 2 0 1 1 2 1 2 1 2 3 4 8 7 5 6 10 14 14 16 17 16 17 17 17 17 12 15 22 18 13 11 10 13 11 7 7 8 9 8 8 9 9 9 11 13 13
14 15 16 16 16 15 12 8 5 2 2 4 7 10 12 15 17 13 8 9 8 3 3 2 1 4 6 4 2 3 6 9 14 20 19 11 5 2 2 1 3 4 2 1 1 2 1 1 1 2 0 3 4 4 1 2 10 15 19 19 19 18 13 15 17 17 15 10 15 22 17 12 8 4 7 7 6 6 6 7 7 7 9 8 8 10 12 12
14 15 16 17 16 15 11 7 4 2 4 5 6 8 11 14 18 15 7 8 10 4 2 2 3 4 4 5 4 5 7 10 16 19 13 7 3 2 2 1 3 3 2 1 1 3 3 2 1 2 0 4 7 6 5 12 19 21 24 22 19 19 14 13 15 14 12 10 15 22 20 15 12 7 6 5 5 5 6 7 6 7 7 8 8 9 11 11
13 15 16 17 17 15 11 6 4 3 5 6 6 7 9 11 18 18 6 4 10 8 3 2 3 4 2 4 6 6 9 14 18 17 9 4 5 4 3 1 3 3 2 1 1 3 4 2 1 2 1 5 9 10 11 17 21 22 24 21 17 17 14 9 9 8 9 11 9 12 15 13 11 8 6 5 4 5 6 6 6 6 6 6 7 7 9 10
13 15 16 17 16 14 10 6 4 5 6 7 7 9 9 9 18 20 6 2 11 10 1 2 2 4 1 2 4 8 12 16 19 17 9 4 6 5 4 2 3 3 1 1 2 2 4 3 2 2 2 3 7 9 13 17 18 18 19 16 14 13 9 6 4 5 8 6 3 3 5 6 7 6 4 4 4 4 5 6 5 5 5 5 5 6 8 9
14 16 17 17 16 14 10 5 5 6 5 7 8 9 10 8 18 21 6 4 13 12 2 2 3 2 3 2 3 11 16 17 20 20 13 5 4 5 4 3 2 3 3 3 4 4 4 2 2 1 1 1 8 14 16 15 13 15 15 11 9 8 5 5 5 2 4 2 5 2 5 4 3 4 4 3 3 3 5 5 5 5 4 4 4 5 6 8
16 17 18 18 17 13 9 5 6 7 6 5 8 9 9 8 17 18 5 4 11 17 5 2 5 1 3 3 2 13 18 19 22 21 15 6 3 4 4 4 4 5 5 4 4 5 4 1 1 2 3 5 13 16 15 12 11 12 12 10 7 7 6 5 6 5 2 3 3 2 6 5 3 3 3 2 2 3 3 4 4 5 5 4 4 5 5 6
17 18 18 18 17 13 8 5 7 8 6 5 5 7 7 6 17 15 5 4 4 16 13 4 5 2 3 4 7 15 16 18 19 18 13 6 4 4 4 3 4 5 5 4 2 2 4 3 1 2 6 12 15 14 12 11 10 8 8 10 11 10 9 6 6 7 1 3 6 4 7 6 4 4 4 2 2 2 3 4 4 4 4 4 4 4 4 4
18 18 18 19 18 14 8 5 8 8 6 5 2 5 4 2 17 18 8 2 3 5 14 15 8 2 4 6 10 13 13 15 17 17 12 6 6 6 3 2 3 3 3 4 4 1 3 3 2 2 5 9 10 11 12 11 10 9 8 10 12 12 11 8 4 6 3 5 8 10 10 7 6 6 4 3 3 2 2 3 4 4 4 4 3 3 4 5
18 18 19 19 19 14 8 6 9 8 6 4 1 3 3 2 13 26 20 10 2 3 6 18 12 3 2 8 10 13 14 14 14 16 11 5 6 6 3 3 2 2 2 5 4 3 2 2 3 6 5 4 6 8 9 9 11 14 12 13 12 9 8 7 5 4 6 11 12 12 12 9 9 7 4 4 3 3 3 2 3 3 3 3 3 4 4 5
18 19 19 19 19 15 8 7 9 7 4 3 3 4 3 3 4 18 27 20 9 2 2 9 9 0 4 9 10 16 15 10 9 13 12 6 4 4 4 3 2 2 4 7 3 3 1 3 6 9 8 5 4 3 2 4 10 17 16 15 14 9 7 8 7 4 8 13 11 10 12 11 9 6 5 4 3 3 2 1 1 2 2 2 3 3 3 3
18 19 19 19 19 16 9 7 10 7 3 2 4 4 3 2 1 5 15 15 7 5 5 1 2 1 5 5 8 17 14 6 5 12 14 8 3 1 3 3 1 3 3 4 3 2 1 6 6 5 4 1 2 3 4 3 13 17 15 14 14 12 9 8 7 3 3 8 9 8 12 11 8 6 4 3 3 2 2 2 2 1 1 2 2 2 2 2
18 19 19 20 19 17 10 7 10 7 4 3 4 3 1 2 1 1 3 4 1 1 2 2 2 2 5 5 7 12 7 4 6 13 17 10 2 2 3 2 4 6 3 1 2 0 2 6 4 4 3 3 4 5 1 10 17 16 14 14 12 10 9 7 6 3 2 5 6 7 12 10 7 5 3 2 3 2 1 1 1 1 1 1 0 1 1 1
18 18 19 20 18 18 11 6 11 7 4 3 5 5 4 4 4 5 3 2 1 2 2 2 3 3 4 4 5 9 2 4 9 14 18 11 2 2 2 2 5 5 2 1 4 5 6 5 6 7 4 2 3 1 11 18 16 14 12 11 10 9 9 9 8 6 4 5 6 7 9 8 5 4 2 1 1 0 1 1 1 0 0 1 1 1 1 1
16 17 19 21 18 18 13 7 9 7 5 5 8 9 7 7 7 6 2 2 2 2 2 1 1 7 7 2 8 12 3 6 8 12 19 10 3 3 2 5 7 5 3 4 5 6 6 3 7 5 4 2 6 8 16 17 12 11 10 8 8 6 7 5 6 9 8 7 9 9 8 5 3 2 1 1 0 1 1 2 1 2 2 2 1 2 2 2
15 16 19 20 18 17 12 6 7 7 9 10 11 10 9 8 6 5 2 1 1 1 3 2 1 7 8 3 12 10 1 6 5 10 17 9 3 3 2 5 7 8 6 9 10 9 8 6 5 1 4 7 14 12 13 13 9 9 8 8 9 7 9 9 8 12 13 10 8 8 6 3 1 1 2 2 1 2 2 3 4 4 3 2 2 3 4 3
15 16 19 19 18 16 9 5 7 7 9 9 8 8 8 6 6 4 2 1 2 1 2 1 1 7 8 7 13 7 3 5 6 8 11 6 2 2 2 2 3 7 5 8 12 9 9 8 4 3 6 8 12 9 5 7 10 8 4 4 13 15 15 16 14 11 10 6 2 3 4 3 2 3 4 3 3 4 4 4 6 5 5 4 3 4 4 4
14 16 19 20 19 15 4 1 8 6 6 6 4 5 6 5 6 3 1 1 3 3 3 5 5 11 12 10 12 4 2 6 6 9 11 8 3 2 2 1 2 5 4 6 8 4 7 8 4 7 8 7 10 9 4 2 10 9 3 2 13 20 18 16 12 6 6 5 2 2 2 2 3 4 4 3 4 6 4 6 7 6 5 5 5 5 5 5
13 14 19 21 20 15 3 0 7 5 3 3 3 5 5 5 6 3 1 1 4 4 6 7 6 10 12 11 12 3 2 5 6 11 15 11 6 1 3 4 3 4 1 1 4 2 6 9 8 8 8 6 8 6 5 4 6 7 2 4 10 16 17 14 8 6 7 5 3 1 2 1 4 3 2 2 4 7 7 10 9 7 6 6 7 7 6 6
12 12 18 21 20 15 5 1 6 4 3 2 2 4 5 5 4 3 0 2 4 4 3 4 5 8 10 10 10 5 1 6 4 10 16 14 10 3 8 11 10 10 6 3 5 3 5 8 10 6 6 7 3 2 4 4 9 6 6 7 5 6 9 9 7 8 7 5 4 3 6 1 5 2 2 2 4 9 12 13 11 8 8 7 7 7 6 6
12 11 17 20 18 14 6 3 5 4 3 2 3 5 6 5 3 2 3 2 2 3 1 3 6 7 9 8 7 8 4 4 4 6 12 12 13 8 8 10 14 17 13 10 10 4 3 5 6 5 6 6 4 3 5 4 10 9 10 9 5 4 5 6 8 8 5 3 3 4 7 1 4 4 4 4 5 11 12 10 8 7 8 8 7 8 7 6
12 10 15 20 17 13 5 4 6 3 3 4 5 6 6 3 1 1 5 1 2 3 0 3 4 5 10 9 8 10 8 5 3 5 6 6 10 10 4 1 7 13 12 14 12 5 3 1 3 4 5 2 3 5 3 6 14 14 12 10 8 7 7 6 6 5 5 3 3 4 6 3 2 4 6 5 3 5 6 6 5 6 8 8 8 7 7 7
11 9 14 18 17 13 5 2 4 3 4 6 6 4 4 1 2 4 3 1 2 3 2 4 4 5 10 7 5 10 8 6 6 7 7 4 7 11 6 3 3 7 9 9 7 7 7 5 2 3 4 4 2 10 9 8 11 9 8 8 7 7 7 5 4 2 5 4 3 3 5 3 3 2 3 4 2 1 3 4 5 7 9 9 8 8 8 9
9 8 14 17 17 16 9 3 2 3 5 6 5 2 2 1 4 3 1 3 2 3 3 3 4 6 8 4 4 9 5 4 6 7 5 4 6 8 7 5 2 2 7 4 3 8 7 6 6 4 3 7 5 7 7 4 4 4 6 7 7 7 5 4 3 3 3 2 3 2 3 2 4 2 2 5 5 4 5 4 4 7 11 12 12 12 9 7
6 7 15 17 16 17 13 7 4 4 5 5 3 1 1 3 4 1 3 3 2 3 2 2 5 7 8 4 5 7 3 2 6 7 3 2 4 5 7 11 7 1 4 2 3 6 3 3 10 9 3 8 8 3 6 4 3 3 4 4 5 7 6 5 3 1 1 2 3 1 2 2 3 2 3 4 2 2 4 5 4 4 7 8 8 8 6 4
4 6 15 18 16 16 13 9 6 5 4 4 2 2 6 5 2 0 2 2 1 3 3 3 7 7 3 3 4 6 2 4 5 6 5 4 5 4 6 12 13 6 2 3 3 4 4 4 8 8 4 8 8 4 2 2 3 2 2 1 3 3 2 5 4 1 2 3 3 1 1 2 1 1 2 2 2 2 3 4 4 3 5 4 2 2 3 4
1 5 16 19 17 17 13 8 6 4 2 1 2 5 6 3 1 1 1 3 2 3 4 3 5 4 3 3 2 4 3 3 5 6 7 7 6 5 6 8 11 8 2 3 3 2 4 3 3 3 3 6 6 4 3 2 2 2 2 2 1 1 1 3 2 2 2 2 2 1 2 2 1 0 1 2 3 4 3 2 4 4 4 4 4 4 4 5
2 3 13 20 18 17 14 8 7 5 2 0 6 5 3 1 1 0 2 2 1 4 7 4 2 3 4 3 2 5 4 3 6 5 4 5 5 6 6 4 7 9 5 2 2 1 3 3 3 3 2 3 5 5 3 1 0 1 0 1 2 2 1 4 3 2 1 2 3 1 3 2 1 1 1 2 4 3 2 2 3 4 3 4 5 5 6 6
3 4 8 19 20 17 13 6 8 8 2 3 8 4 1 1 1 1 2 3 1 3 5 2 2 3 3 2 4 8 7 3 5 6 3 2 3 6 7 3 3 7 6 2 2 2 2 4 2 3 2 3 4 5 4 2 1 1 2 4 3 1 1 1 2 2 1 2 2 0 3 2 2 1 2 1 1 1 1 2 3 4 4 6 6 6 7 7
4 5 5 18 20 15 11 5 5 6 4 6 8 4 0 1 1 1 3 2 1 3 3 2 3 2 1 1 3 7 8 5 5 5 3 3 3 4 7 4 2 6 6 3 1 2 1 4 2 2 1 1 2 2 1 4 6 4 4 4 2 1 1 1 1 2 2 2 2 1 2 2 2 1 1 1 3 3 0 2 4 6 6 7 7 6 7 7
3 4 2 15 17 11 11 9 5 4 5 6 4 2 0 1 1 1 1 2 2 3 3 3 3 2 2 2 2 4 5 4 4 3 2 4 3 4 6 4 3 6 7 5 1 1 2 2 3 2 3 2 0 2 1 3 5 4 4 2 1 2 1 1 1 1 1 2 2 1 1 1 2 1 2 3 3 3 2 2 3 5 6 6 6 6 6 6
1 2 1 14 15 4 9 15 9 5 6 4 1 1 1 1 2 1 2 1 2 2 3 3 3 3 2 2 1 2 4 4 4 3 3 4 2 2 5 4 5 8 6 4 1 1 3 1 3 1 2 2 1 4 4 3 3 1 1 1 2 2 1 1 2 2 1 1 2 2 2 0 1 1 2 3 4 3 3 4 4 4 4 5 6 6 6 6
0 2 0 14 13 2 4 14 9 4 4 3 1 2 1 1 1 1 1 1 1 1 2 2 3 3 2 2 2 2 3 4 4 3 3 4 4 3 3 4 6 8 5 2 2 3 3 2 3 2 2 3 3 3 2 3 3 2 2 2 2 1 1 1 3 1 1 1 0 1 2 1 1 1 3 3 3 3 3 4 5 5 5 5 5 5 6 6
2 2 2 14 9 6 6 8 3 3 3 2 1 1 1 1 1 2 1 1 1 1 1 2 3 3 2 2 2 2 2 3 3 3 3 3 4 3 2 3 3 4 3 1 2 3 2 2 5 3 2 2 1 1 1 2 3 3 2 1 1 0 1 1 1 3 2 1 1 1 1 2 1 2 2 2 3 4 4 4 6 6 6 5 5 5 5 6
2 2 3 13 5 6 7 5 1 3 3 0 1 1 1 1 0 1 1 1 1 1 1 2 1 2 3 2 2 2 2 2 3 3 2 1 3 2 3 5 3 2 2 1 1 0 1 1 3 2 0 1 1 2 1 2 3 3 1 1 0 1 1 2 1 2 2 1 1 1 1 2 2 2 1 2 3 5 5 4 6 7 6 6 6 6 5 6
2 2 3 15 6 5 1 3 3 2 2 1 0 1 0 0 0 2 1 1 2 0 1 2 0 2 2 1 1 2 3 1 2 2 1 0 2 2 2 5 5 3 2 2 2 1 1 0 1 2 2 2 2 3 3 2 2 2 0 1 1 1 2 1 1 1 1 1 0 0 1 2 2 2 1 2 3 5 5 3 4 5 6 6 6 5 5 6
2 1 1 13 15 7 2 1 3 4 3 2 2 2 1 1 1 1 1 1 1 1 1 2 1 1 1 0 1 2 3 2 2 1 1 1 1 1 1 3 4 4 3 2 3 2 0 1 1 1 2 2 2 2 1 1 2 0 0 0 1 1 1 1 1 1 1 2 1 1 1 2 1 2 3 4 3 4 4 3 3 5 6 6 6 5 5 5
1 2 1 5 11 9 3 1 3 4 3 3 3 1 1 2 2 1 1 1 1 0 1 2 0 1 1 0 1 2 4 4 2 1 1 2 2 0 1 2 2 4 2 3 4 1 3 3 2 0 0 2 3 2 2 2 2 2 2 3 2 1 1 2 1 1 1 4 3 3 1 1 1 3 3 4 4 4 5 5 4 4 5 5 5 6 6 5
0 1 1 1 2 3 3 2 3 3 2 1 1 1 1 2 1 1 0 1 1 0 1 2 1 0 0 0 1 2 3 3 2 2 1 2 3 2 1 0 2 6 3 2 3 1 2 2 2 1 1 3 3 3 3 3 1 2 2 3 3 2 1 2 2 0 3 4 1 1 2 2 2 1 3 4 4 5 6 5 5 4 4 5 5 6 7 7
1 2 0 1 0 1 1 1 2 4 3 2 1 1 1 2 1 2 1 0 1 1 1 1 3 3 2 1 0 1 2 2 2 2 1 2 3 3 2 1 1 5 3 1 1 1 1 2 1 0 1 2 3 3 3 2 1 0 1 3 3 4 4 4 2 2 4 3 1 2 3 5 5 3 4 4 4 6 6 5 5 5 6 6 6 6 7 7
2 3 1 3 1 1 1 1 3 5 4 3 2 1 1 3 2 2 0 0 1 1 1 1 3 4 2 1 0 1 1 1 2 1 1 1 2 3 2 1 0 3 3 2 2 1 1 2 2 1 1 3 3 2 1 1 1 1 3 4 4 4 5 5 3 1 3 4 3 0 4 9 9 7 8 5 2 4 5 5 5 6 6 6 5 6 7 7
1 2 1 2 3 2 1 1 1 3 3 1 1 1 1 3 3 3 0 1 1 1 1 1 2 1 1 0 0 2 2 2 3 2 0 1 1 2 2 1 1 4 5 3 2 3 1 1 2 2 1 2 3 2 2 1 0 2 4 4 4 3 4 5 3 1 2 5 4 2 5 9 7 5 7 6 2 2 5 6 6 6 5 5 5 6 7 7
3 3 4 4 3 1 1 1 0 1 1 0 1 3 3 3 4 5 2 1 1 1 2 2 5 2 1 3 4 4 2 2 3 3 2 1 2 2 2 1 2 5 5 4 3 4 2 1 1 1 1 2 2 3 2 2 1 2 5 6 7 6 3 4 4 4 5 3 2 3 3 4 2 1 4 5 3 4 6 6 7 6 5 5 6 7 8 8
4 4 2 3 3 1 1 1 1 0 1 1 2 3 2 2 5 4 3 1 0 2 2 1 4 2 1 4 4 3 1 2 4 4 3 4 4 4 3 3 3 3 3 2 2 3 2 1 1 1 0 1 2 3 2 3 1 1 2 3 8 8 5 3 3 6 8 6 3 3 2 1 1 0 3 4 4 5 6 4 4 5 5 5 6 8 8 8
Wind_Direction
13 20 24 21 14 6 359 354 352 351 352 354 359 6 10 3 357 352 349 345 341 338 337 343 336 340 351 347 356 1 11 92 75 33 35 14 343 333 334 332 330 331 338 349 358 0 354 8 12 350 229 172 323 151 152 25 138 199 197 194 203 194 189 178 156 145 125 134 141 140 126 114 113 100 98 76 66 76 76 68 66 65 57 50 38 17 10 10
9 15 17 13 5 356 349 347 347 348 351 354 360 7 8 0 355 350 346 344 345 341 337 343 337 338 350 348 350 360 34 135 60 36 24 359 344 336 334 331 327 327 338 351 2 3 350 358 358 338 236 172 145 174 175 181 205 207 194 192 206 160 120 33 119 126 125 134 129 119 115 104 104 103 96 85 74 70 72 59 50 56 41 34 24 13 15 12
7 13 12 6 358 350 345 344 345 348 351 354 2 12 9 359 353 348 346 346 348 345 344 346 338 341 352 351 344 354 80 179 46 23 2 352 344 336 336 328 323 324 334 351 0 354 339 339 330 318 204 166 132 187 176 164 208 210 209 195 167 98 86 65 112 121 126 129 119 112 100 82 80 92 103 102 84 60 59 41 24 36 19 15 11 8 14 15
7 11 9 2 355 349 344 343 345 348 352 357 6 15 10 360 350 346 351 355 352 344 348 350 346 352 358 351 345 349 202 199 47 9 345 346 339 332 335 327 318 323 325 337 351 342 327 319 310 313 191 168 118 182 170 150 208 147 233 184 126 107 91 80 107 112 117 119 115 113 97 83 70 65 92 114 94 61 49 37 28 32 14 10 6 7 18 25
10 12 7 1 356 350 344 344 348 352 358 4 12 14 7 1 349 345 358 2 355 342 345 356 360 360 4 1 359 353 232 201 27 357 337 339 333 327 330 325 314 316 318 325 339 336 317 300 302 276 200 158 146 178 154 113 325 101 59 86 112 114 98 94 108 108 113 114 109 105 92 91 76 52 54 76 86 72 45 42 39 35 24 19 12 13 26 34
15 11 6 2 356 351 347 348 353 359 8 13 16 11 6 3 351 348 356 358 356 346 346 4 7 4 5 14 27 20 290 130 11 344 331 330 325 321 321 318 308 298 310 321 331 337 324 278 247 186 169 144 160 170 128 113 272 114 83 77 106 110 106 110 107 106 114 108 102 98 95 100 90 68 53 60 70 70 56 53 47 39 35 34 28 29 36 39
15 9 6 3 358 355 351 353 358 8 20 24 21 13 10 7 359 355 353 359 360 352 3 13 2 2 0 7 43 41 45 27 355 338 329 328 322 315 314 310 279 255 302 314 324 341 338 245 204 168 153 147 155 145 117 117 102 107 104 90 98 102 106 113 104 101 100 96 97 99 95 88 87 85 64 60 60 55 56 53 50 49 43 42 40 39 43 44
12 9 7 3 2 357 352 354 1 16 34 30 23 16 11 8 7 4 356 3 3 357 16 9 6 3 2 3 346 42 37 357 339 336 332 330 327 314 307 300 245 238 275 320 342 338 295 218 176 180 167 145 137 143 131 116 94 100 112 103 97 96 102 106 100 99 95 96 98 90 83 80 87 86 68 61 54 48 50 46 46 53 52 46 43 43 44 46
11 8 5 5 4 359 354 353 360 21 32 19 18 14 9 7 9 10 6 6 3 4 6 358 25 8 11 19 292 6 17 347 339 337 334 336 338 340 342 301 224 218 223 64 10 351 272 206 143 237 165 107 131 146 143 129 110 112 117 111 103 100 104 108 102 101 101 105 103 90 85 86 88 80 65 56 51 54 52 47 38 46 57 49 43 45 44 45
8 6 5 4 4 1 355 349 354 4 325 345 7 6 5 6 7 9 11 15 9 355 356 355 335 353 17 30 355 30 10 350 350 342 336 343 352 29 40 304 188 203 214 118 45 19 357 51 46 309 2 101 136 136 315 127 122 119 114 105 101 100 101 104 105 107 100 94 100 96 87 69 59 73 73 55 51 64 66 57 37 39 56 49 45 47 45 46
3 3 3 1 2 2 355 347 341 296 282 303 336 349 357 2 3 3 5 21 17 352 307 306 304 340 31 53 39 30 11 358 358 351 342 355 26 51 46 95 174 203 212 126 56 52 57 54 40 279 268 132 126 90 85 117 120 120 110 98 95 98 94 95 104 110 102 96 99 97 85 53 41 63 77 73 65 64 74 68 43 37 49 51 48 48 47 45
359 359 359 359 1 0 355 346 328 297 275 287 309 323 338 355 359 358 354 4 7 357 302 259 320 357 79 86 55 30 12 6 2 2 0 30 57 39 18 118 165 178 207 190 80 68 72 64 283 277 340 142 127 99 115 125 123 120 110 104 104 100 88 76 94 109 117 121 113 96 83 45 36 65 74 84 85 70 75 70 54 39 40 51 49 48 49 44
355 355 356 357 358 358 357 347 330 316 279 280 294 306 321 345 355 358 6 4 2 360 321 188 337 359 51 138 72 26 10 7 6 13 21 58 63 40 30 70 143 144 156 129 112 81 74 58 325 311 351 148 124 111 133 134 126 119 111 114 118 105 78 37 60 113 120 117 299 284 106 58 45 71 75 83 93 82 75 65 58 49 42 49 50 52 50 42
353 353 353 355 356 357 357 350 339 330 301 279 273 298 319 337 355 359 23 75 22 18 137 128 17 345 23 126 100 12 3 7 11 14 19 45 60 43 41 50 109 127 107 108 102 70 62 30 344 116 6 26 118 123 135 139 133 124 116 123 126 115 99 35 20 77 119 67 307 264 128 112 79 74 79 83 89 86 78 69 58 54 48 44 48 54 52 42
351 352 351 352 354 355 354 355 346 336 332 298 262 283 308 335 359 2 34 115 37 35 80 121 18 72 57 89 56 358 2 10 10 9 10 16 30 35 38 49 92 98 92 102 93 63 49 44 207 127 106 123 134 134 136 140 143 137 130 138 138 121 121 83 28 6 105 85 3 70 112 115 117 106 102 95 104 97 79 77 68 57 46 38 45 48 52 48
350 349 349 351 352 354 352 349 351 342 341 331 266 265 284 343 9 13 46 135 68 43 53 35 352 61 74 41 357 356 2 1 1 6 12 32 50 39 32 44 85 90 92 86 80 64 39 64 82 53 125 144 147 141 135 138 146 156 151 147 142 133 137 126 47 5 4 84 26 66 128 125 125 131 118 99 117 113 89 81 73 61 45 38 43 42 48 48
348 348 348 350 353 355 350 345 353 345 338 344 265 238 241 3 30 39 55 100 153 50 42 28 357 178 90 22 354 353 346 342 355 8 17 57 50 17 7 39 60 56 107 85 50 15 14 41 124 131 143 151 152 146 144 150 156 159 153 142 137 133 139 144 91 25 29 101 75 90 112 114 122 132 118 100 105 98 87 76 63 59 48 38 39 40 42 42
348 347 348 352 355 356 354 350 353 346 339 354 207 198 188 161 42 45 49 52 90 222 25 20 10 165 68 5 348 334 324 330 354 6 9 28 23 14 30 60 25 326 169 123 47 6 8 30 145 146 144 150 163 163 156 159 158 154 150 142 132 120 117 119 101 52 80 99 96 98 104 112 122 127 120 112 112 101 79 61 57 56 53 44 37 37 35 38
348 348 350 353 356 359 358 355 355 354 348 13 128 141 125 156 39 39 44 47 49 55 43 8 11 99 313 334 329 328 329 328 348 6 7 360 9 40 48 38 351 328 154 145 79 5 33 126 145 149 150 160 162 154 180 176 150 144 143 139 131 109 85 91 96 76 87 90 84 99 114 125 130 129 132 123 117 114 102 90 68 40 47 46 36 37 33 36
348 349 352 353 356 358 358 358 356 360 18 54 132 137 129 145 245 26 40 44 49 62 99 98 20 323 303 308 321 339 350 342 348 13 12 360 327 331 11 7 103 104 124 138 96 359 246 140 137 142 140 129 11 330 284 162 126 120 118 117 112 103 92 97 104 63 43 75 67 93 115 122 126 124 130 133 141 138 137 143 104 59 50 46 37 35 31 37
349 350 353 353 354 356 355 358 354 358 38 45 164 156 168 186 61 88 58 36 5 18 115 170 220 300 302 274 322 348 354 326 354 19 13 4 300 284 354 11 129 111 58 8 107 170 197 131 87 4 358 322 307 277 205 109 108 101 102 109 99 96 95 84 85 52 33 94 90 108 111 106 109 116 123 146 173 164 120 161 112 101 84 58 25 4 15 27
351 352 354 353 351 352 353 357 356 358 27 36 158 133 103 143 122 122 139 110 181 244 258 256 232 336 315 230 339 345 317 341 4 17 7 358 4 4 359 64 109 105 43 217 160 144 130 104 26 353 323 283 300 204 117 103 100 96 101 111 101 106 105 76 58 56 61 103 121 131 113 98 93 97 111 149 203 138 75 296 315 169 201 187 231 274 282 261
350 351 352 352 349 348 349 359 3 14 52 88 118 112 113 126 135 142 128 103 120 209 237 246 221 8 8 106 357 343 20 22 358 5 359 357 39 8 10 84 89 89 79 106 125 128 116 42 360 339 273 146 91 103 114 106 101 109 115 117 115 129 122 86 61 69 67 86 126 135 108 91 96 92 155 174 267 269 213 232 238 253 248 227 249 270 259 252
349 350 350 351 350 344 343 5 20 38 66 90 101 108 127 123 133 142 108 134 68 171 189 164 115 20 14 1 348 338 56 30 3 358 357 7 39 333 15 75 77 79 80 82 84 82 64 13 349 252 215 128 108 109 114 113 108 108 112 121 127 118 97 102 112 97 83 79 108 126 109 103 146 174 194 164 199 246 223 225 230 227 229 233 251 259 256 261
350 352 352 352 353 346 335 14 32 45 69 80 90 118 135 125 143 139 90 170 8 2 158 93 59 25 4 333 349 332 216 28 29 0 354 16 14 291 76 44 55 75 72 64 72 65 34 3 338 122 134 114 110 113 98 109 118 103 66 107 127 118 107 119 131 117 98 90 83 122 139 161 173 211 216 185 216 239 222 234 242 226 215 222 231 239 244 248
352 355 355 355 355 354 336 28 21 36 79 70 71 127 145 156 166 144 77 152 29 5 357 357 348 4 357 338 342 304 189 22 4 359 8 22 349 236 109 35 74 74 68 57 70 69 8 356 13 92 112 106 106 106 17 30 126 118 24 70 130 126 124 139 150 131 107 116 139 197 192 154 160 217 217 190 244 255 239 237 239 225 216 218 223 224 224 226
350 356 357 357 357 3 25 309 2 25 88 73 90 119 141 172 173 166 237 79 33 1 348 347 332 355 360 345 337 320 134 328 320 9 12 10 357 248 76 63 93 62 56 110 74 43 341 359 31 66 90 92 103 98 347 330 119 115 97 137 139 129 133 153 156 116 107 113 137 237 321 139 169 209 162 130 258 261 252 241 229 215 215 219 224 221 216 220
344 351 359 358 357 6 32 33 11 40 64 54 126 132 142 139 152 185 108 60 15 344 345 338 332 358 355 337 352 54 88 302 339 4 347 0 20 62 76 67 76 58 35 115 101 44 348 19 27 32 66 73 70 349 330 50 87 101 121 121 113 105 136 153 121 105 127 137 123 10 344 205 165 139 117 146 238 242 239 234 222 208 211 217 222 223 219 221
340 344 357 358 358 4 21 53 35 48 55 67 115 143 151 127 145 198 51 76 321 342 56 345 346 351 340 331 18 50 16 336 51 332 321 7 24 36 74 66 73 68 49 69 90 72 27 30 0 3 52 57 37 324 292 63 92 119 120 106 110 98 101 117 105 112 148 156 106 19 346 270 169 149 162 182 230 235 230 227 221 205 206 215 221 221 217 217
343 343 356 1 4 6 17 53 31 34 84 97 111 137 151 130 169 81 41 47 304 352 76 359 351 326 340 358 24 23 21 24 14 317 331 26 22 27 57 9 64 77 67 65 72 76 67 21 303 24 38 336 50 55 8 86 113 133 131 120 128 113 85 80 87 112 157 159 92 27 347 319 197 167 178 193 219 233 225 219 214 200 203 214 221 223 218 217
349 351 359 6 13 16 21 38 16 49 112 119 121 131 152 91 55 86 54 306 309 344 341 359 356 342 350 7 12 360 19 30 353 357 15 17 21 26 21 318 20 71 71 60 64 71 57 39 4 28 15 322 69 80 61 81 116 139 147 130 112 101 97 92 82 144 183 175 91 39 342 307 237 177 166 200 194 181 232 219 206 203 201 204 215 223 220 218
357 4 6 11 22 29 35 28 30 104 125 129 122 112 176 57 45 77 321 302 326 349 359 345 338 346 333 318 6 352 356 23 5 22 25 4 40 47 43 31 339 76 69 52 70 62 37 24 16 350 29 20 31 102 92 88 127 151 154 133 112 118 127 126 133 176 189 142 73 28 339 282 254 274 144 198 210 215 232 228 220 213 201 198 206 214 212 209
7 19 10 12 24 35 41 40 54 118 131 138 138 16 106 80 46 9 297 322 6 347 339 299 306 318 309 313 9 350 337 26 358 10 15 346 53 80 65 37 6 359 83 85 86 58 47 34 12 354 8 10 3 96 120 117 127 139 142 124 123 137 145 149 151 181 181 105 67 5 322 248 258 281 148 170 185 226 252 250 256 252 225 211 209 211 203 195
15 30 13 12 20 29 40 45 55 97 121 145 160 30 65 75 59 279 308 302 317 321 306 309 310 307 320 23 4 336 5 72 8 359 10 10 34 36 22 23 15 359 63 80 66 46 80 79 10 356 342 347 2 36 66 82 87 67 5 2 128 137 145 155 160 149 138 111 84 84 256 236 238 56 90 87 46 329 294 272 265 278 275 276 287 256 213 210
22 42 17 15 16 19 27 38 55 82 117 165 90 56 68 78 244 187 346 295 290 312 304 314 312 312 25 42 12 357 9 42 16 10 27 34 45 25 351 360 8 356 336 74 66 45 83 77 338 303 288 328 2 21 351 12 78 79 318 311 94 16 25 118 109 58 94 112 119 170 258 271 269 29 19 339 300 277 277 268 248 243 257 272 270 253 234 229
107 77 21 16 14 12 14 26 47 44 306 145 78 63 61 72 281 93 28 334 340 320 308 309 313 348 16 355 360 13 355 1 7 7 41 54 61 37 8 345 1 3 0 46 74 81 100 82 337 292 274 341 14 16 360 1 74 150 219 45 60 351 47 115 99 37 302 195 137 205 263 254 250 213 231 285 286 276 262 253 242 231 230 242 247 242 234 234
122 124 29 16 11 7 7 27 57 48 18 69 74 68 35 86 321 328 2 351 345 307 307 335 4 351 360 343 351 354 342 342 2 3 25 50 51 23 5 350 11 15 6 10 57 31 90 104 30 325 355 28 17 360 359 28 359 235 126 112 115 8 3 112 121 122 218 197 113 310 269 279 286 186 146 211 359 13 255 263 258 245 237 237 242 240 235 237
140 147 49 13 7 8 13 35 61 48 61 63 67 90 177 30 6 335 355 353 293 297 319 47 21 349 321 339 1 348 338 340 358 11 31 17 34 20 357 352 18 21 2 317 3 20 51 99 90 282 320 37 13 340 346 46 36 42 96 116 162 192 122 116 122 144 168 151 117 216 266 277 257 221 62 4 14 23 276 245 246 241 240 237 242 245 243 247
148 151 60 4 4 14 29 55 72 39 69 69 64 101 43 321 343 326 328 332 264 286 351 33 14 21 40 358 350 345 352 10 359 356 31 8 22 40 19 356 310 356 357 325 359 10 287 90 108 188 197 212 303 23 6 39 42 68 105 113 315 350 38 90 55 295 188 142 134 149 239 241 201 201 310 304 324 334 307 283 256 247 248 246 248 250 248 250
143 132 106 359 3 23 43 53 62 37 59 69 43 96 67 286 310 304 261 295 281 292 3 14 357 15 31 1 355 351 8 33 12 7 37 9 4 57 41 17 323 334 338 312 28 19 287 45 102 151 189 192 56 29 3 353 7 20 96 85 90 63 345 117 89 6 356 152 157 131 138 101 85 156 254 290 315 319 302 292 286 277 267 253 250 250 248 250
77 75 21 353 357 178 56 45 50 30 64 78 58 93 80 258 308 351 188 228 285 315 2 17 27 28 11 355 22 3 358 30 24 24 52 25 17 43 49 30 343 325 318 313 17 13 338 47 77 48 41 54 46 25 346 328 340 337 347 9 45 70 237 158 107 84 359 8 268 111 127 113 67 153 226 281 303 294 284 281 282 283 278 271 264 255 255 259
54 83 352 354 10 123 74 49 51 31 88 97 29 91 306 295 293 358 68 153 263 269 344 39 53 40 32 3 4 359 359 30 21 11 41 25 10 12 11 15 344 304 308 19 25 359 345 72 71 55 35 24 18 33 347 284 288 292 316 5 4 17 263 306 123 148 132 62 264 265 98 112 120 166 225 260 284 288 282 268 272 285 293 296 297 292 284 278
55 141 2 360 9 148 66 64 120 26 68 124 322 242 305 345 268 325 20 23 331 291 5 42 26 22 43 15 335 354 360 25 28 9 27 6 348 6 354 347 336 291 307 48 110 7 309 76 74 79 192 269 228 167 165 256 262 256 254 87 261 309 2 337 32 129 146 159 218 225 135 142 141 140 231 268 283 285 278 260 265 282 296 298 298 299 296 288
31 186 2 6 6 192 90 73 139 74 97 177 22 116 64 293 277 3 6 355 357 5 58 64 357 19 43 357 347 9 338 13 61 14 10 2 5 52 23 346 350 352 357 10 355 338 326 57 115 126 129 145 180 179 184 216 242 244 49 46 4 44 73 91 68 98 181 167 351 268 152 139 108 109 229 262 283 285 276 255 252 270 288 296 297 294 289 290
30 178 275 12 33 73 93 70 134 128 146 152 99 68 36 126 141 338 348 29 21 289 59 82 34 18 85 299 36 28 350 12 67 18 344 294 311 94 46 347 358 1 3 9 336 313 49 50 339 165 133 134 144 155 165 159 158 145 2 225 201 78 349 282 126 199 218 136 140 247 152 96 110 188 241 251 264 282 279 263 245 255 272 281 287 291 293 295
55 67 280 0 31 53 71 10 75 111 148 151 115 76 28 94 102 207 219 74 117 226 41 80 291 269 181 157 48 38 11 14 40 75 54 327 305 93 6 341 360 352 3 49 20 15 119 82 25 335 66 43 67 68 20 34 129 157 176 197 206 211 311 286 253 275 140 137 184 238 274 352 251 215 230 225 224 265 287 291 279 266 268 274 283 293 298 298
75 87 36 349 27 48 74 47 46 88 136 169 136 130 137 107 84 155 174 26 123 57 29 86 49 338 135 355 97 79 16 4 30 50 28 326 293 278 325 265 336 340 341 90 29 7 140 93 40 43 22 358 11 25 360 359 81 164 165 176 199 201 197 238 260 311 133 148 207 232 181 253 270 185 203 219 242 281 291 293 295 296 293 290 290 290 290 289
33 136 57 322 25 81 78 78 98 92 77 74 91 78 118 131 113 110 115 82 91 309 269 107 43 26 19 325 169 96 3 5 44 28 339 339 316 305 328 157 302 345 353 117 2 341 120 78 44 353 27 0 345 346 333 336 25 346 230 200 200 194 193 215 241 222 202 218 352 85 175 240 267 272 263 261 273 283 286 295 299 297 289 285 288 287 286 291
56 110 70 336 37 113 3 40 116 107 87 93 111 105 154 149 130 95 50 17 94 352 310 49 20 2 2 314 276 91 10 12 41 19 315 350 334 332 0 79 172 3 22 50 17 342 162 86 100 159 76 48 21 2 329 286 341 286 248 224 213 208 213 235 273 274 246 272 313 130 250 270 271 269 277 285 292 274 280 291 286 276 277 282 285 285 286 293
142 143 146 56 80 94 20 25 116 104 89 101 113 111 161 156 143 131 101 331 79 51 336 104 112 12 6 284 134 76 59 25 32 43 80 294 329 5 21 21 318 344 10 37 354 302 284 85 111 180 153 67 38 30 53 74 76 270 255 223 201 211 235 249 264 239 242 275 273 233 271 279 266 252 271 286 309 271 268 277 277 276 282 283 281 283 289 295
96 122 146 118 90 28 1 71 335 80 117 166 147 157 179 180 160 140 110 354 1 1 335 129 139 137 26 49 63 72 64 34 58 66 71 59 34 21 20 33 319 322 353 25 348 332 351 105 136 214 186 90 31 9 14 1 289 261 270 234 192 188 213 222 218 205 201 206 174 174 244 267 233 187 276 270 256 256 259 264 273 279 280 278 284 292 297 296
105 106 131 105 85 324 305 79 332 99 135 60 103 151 179 153 154 141 103 111 145 354 334 138 140 143 48 58 60 63 50 69 83 77 75 93 84 68 69 71 50 360 357 12 5 3 11 120 135 313 268 112 14 349 326 302 270 207 287 215 178 186 212 222 228 225 214 194 162 178 210 163 112 282 285 275 265 273 279 273 275 280 278 275 274 277 284 284